Powrót do katalogu

PNEO3

AktywnyNaukaSSO
NORAD 48268·PAYLOAD·🇫🇷 France

Wystrzelony Apr 29, 2021 z Guiana Space Centre

Loading…

Następne Przeloty (najbliższe 24 godziny)

TLE

ŚwieżeSource: Space-Track

Epoka: Sep 14, 2026, 12:44 UTC

1 48268U 21034A   26257.53107147  .00000103  00000-0  19747-4 0  9994
2 48268  97.8953 331.0137 0001472  83.8422 276.2959 14.81673787290889

Śledź PNEO3 w czasie rzeczywistym z AllMySat

Download on the App Store